Theta_e
310 310 313 313 314 316 319 322 322 323 323 324 324 324 324 326 326 326 327 328 330 329 328 328 328 328 328 331 330 331 333 334 336 339 340 340 340 339 336 334 332 333 334 334
313 310 312 314 315 316 317 317 318 321 323 323 323 324 325 326 325 326 327 329 330 330 329 328 328 327 331 332 331 332 333 336 338 340 341 339 339 340 336 333 333 333 334 334
313 313 313 314 315 316 316 317 316 317 320 321 321 321 321 323 326 327 329 329 330 330 329 328 328 329 332 331 332 332 334 338 339 340 340 336 335 335 334 334 335 334 334 332
307 310 315 314 314 316 316 317 318 319 320 320 320 320 321 323 325 326 328 329 330 330 330 329 328 330 333 333 333 333 334 337 337 338 336 336 336 336 336 336 334 333 331 333
307 308 310 313 314 316 317 318 317 319 318 318 319 320 322 324 325 326 326 327 328 329 328 329 328 333 334 335 334 334 334 336 337 335 335 337 335 334 334 334 334 333 333 332
308 309 308 308 311 315 315 317 317 317 317 317 318 320 321 321 323 324 324 327 327 326 327 330 334 335 337 336 335 336 334 335 336 337 335 335 334 333 332 333 333 332 332 332
311 311 311 310 309 310 313 313 314 317 317 318 318 320 322 322 323 324 324 326 326 327 329 336 337 337 337 336 337 335 332 335 336 335 336 335 335 331 334 334 332 331 332 330
313 315 315 315 310 309 310 313 315 318 319 318 319 321 320 322 324 324 325 325 326 328 334 337 337 337 337 338 337 334 335 337 335 336 336 334 332 327 328 332 332 331 329 330
314 313 312 311 311 310 309 310 315 315 318 318 319 320 320 320 321 323 323 326 335 334 338 338 338 338 337 338 336 333 336 336 333 334 333 330 330 335 334 332 331 330 327 328
312 312 310 310 312 315 315 312 315 315 317 320 320 320 320 321 323 323 326 326 337 338 338 338 338 338 338 337 336 336 337 336 335 334 333 331 332 331 331 331 330 329 329 330
310 311 312 312 312 315 314 311 311 314 316 319 321 320 320 328 328 325 326 328 337 337 337 337 337 338 337 337 337 338 338 336 334 333 331 332 331 330 331 330 332 330 331 329
311 313 314 312 313 314 315 313 311 314 317 318 319 320 321 324 327 326 326 329 336 337 337 337 337 337 337 336 337 337 337 334 333 331 333 331 331 331 331 331 330 330 330 329
311 311 313 314 313 315 318 320 315 316 317 318 320 321 320 324 327 327 325 331 336 337 337 337 337 337 336 337 337 337 335 333 332 332 331 331 331 330 330 331 330 330 329 330
311 310 312 313 314 315 317 316 317 317 319 319 320 320 320 325 326 326 330 335 336 336 336 337 337 337 336 337 336 335 332 332 332 333 331 331 331 330 330 330 331 330 329 331
311 312 311 310 311 313 315 315 316 316 317 320 319 321 320 326 328 334 334 335 335 336 336 336 337 337 336 336 335 332 332 332 331 333 331 330 331 329 329 329 330 331 329 330
311 311 312 314 314 314 316 315 314 315 316 319 320 321 327 326 333 335 335 335 336 336 335 335 336 336 336 335 333 331 332 331 331 334 331 330 330 329 328 328 329 329 329 330
311 313 315 317 316 315 315 313 314 315 317 319 322 326 325 326 329 332 335 335 335 335 335 335 336 336 336 334 331 329 331 331 330 333 332 331 330 329 328 329 328 329 329 329
310 311 314 318 318 319 315 316 323 325 325 325 325 327 326 329 329 329 331 334 335 335 335 335 336 336 335 333 330 328 330 330 329 333 332 330 330 327 329 328 329 329 328 328
310 312 317 320 320 319 317 320 321 326 329 328 326 324 326 330 329 327 329 329 332 335 334 334 335 335 335 331 329 328 330 329 329 331 332 332 329 328 328 329 328 328 327 328
311 313 315 317 320 324 319 317 318 322 328 327 327 327 327 327 328 327 328 329 330 334 334 334 334 335 334 331 328 328 330 329 328 330 331 331 329 329 328 328 325 328 328 327
315 315 315 317 320 317 314 315 320 329 327 322 325 325 325 326 326 327 328 329 330 332 335 334 334 334 334 331 328 328 329 328 328 330 330 331 330 329 329 327 327 328 329 328
314 317 318 317 320 321 313 315 321 318 318 321 320 321 324 325 326 328 328 329 329 330 334 336 334 334 334 332 329 328 328 328 327 330 330 330 331 330 329 324 327 328 329 329
314 314 315 311 313 315 311 313 315 316 317 318 318 319 320 323 325 326 327 329 330 330 331 335 335 334 334 332 330 328 328 327 326 329 329 330 331 331 330 324 328 328 329 327
313 313 315 315 314 315 313 313 312 313 314 317 317 317 318 319 323 324 326 328 330 332 331 332 338 335 334 333 331 329 328 327 326 328 329 331 332 332 331 324 326 329 328 328
312 312 310 314 313 312 312 312 312 312 315 315 317 317 317 318 319 324 325 326 329 331 334 333 334 336 335 334 332 329 329 327 326 327 329 330 332 333 332 328 324 326 330 330
310 310 312 312 310 311 312 311 312 313 314 314 315 316 316 317 319 323 324 325 327 330 333 335 335 337 335 335 334 330 329 327 326 327 328 328 330 333 333 326 326 327 327 330
Wind_Speed
16 9 21 33 21 15 18 22 18 17 18 16 18 25 26 22 19 22 30 28 25 19 22 22 33 27 24 18 21 20 21 22 24 28 27 27 26 22 15 16 18 17 17 17
9 23 26 15 19 21 23 24 21 14 12 17 21 20 25 21 18 34 34 30 32 34 31 27 22 24 22 22 20 19 19 22 26 25 21 15 15 20 16 15 18 17 20 22
15 16 16 20 20 21 26 26 18 21 12 19 11 12 19 16 19 24 26 31 23 23 27 29 28 21 23 22 19 15 18 23 22 19 14 11 13 12 15 14 18 22 20 17
15 17 21 20 24 19 24 13 21 18 12 20 5 14 19 16 20 16 20 25 25 25 25 27 24 22 23 20 15 14 17 20 19 16 15 17 19 16 15 17 14 19 17 16
22 14 7 17 21 19 23 15 18 12 17 16 16 6 27 8 12 9 10 28 35 37 40 29 26 23 23 17 13 14 16 16 17 16 22 16 17 13 9 9 12 12 12 13
18 18 16 18 17 19 17 17 18 15 12 14 17 12 31 18 20 7 9 27 29 31 28 20 22 26 21 15 13 15 17 19 22 19 18 13 16 11 13 12 10 9 12 14
13 16 17 18 19 18 13 13 8 8 11 17 12 10 22 5 14 20 15 25 31 25 15 23 30 27 22 18 18 17 22 26 22 21 16 14 15 16 13 12 12 11 12 8
7 7 8 9 18 12 13 13 10 14 11 16 7 15 12 13 18 27 33 33 32 22 20 34 34 29 23 21 19 23 26 21 22 22 16 14 15 10 8 8 9 10 6 4
5 6 14 21 18 15 21 18 13 17 15 6 6 19 23 26 26 19 18 18 13 12 33 37 32 28 26 23 21 27 23 19 20 15 11 9 9 7 8 7 8 7 4 3
1 8 8 18 13 15 14 11 8 9 18 16 8 14 12 16 16 19 9 12 26 36 35 32 29 28 26 22 24 23 20 19 18 13 10 10 7 5 6 6 4 4 5 5
5 6 8 10 3 8 7 17 13 7 11 11 11 12 14 10 8 9 10 18 33 35 39 36 32 30 26 24 24 21 20 19 18 13 12 10 8 5 3 3 4 3 5 6
5 2 6 12 15 17 18 19 16 9 8 10 6 11 7 11 5 9 11 23 38 40 39 36 36 33 28 27 26 24 21 20 17 12 13 9 6 2 3 4 5 4 7 8
3 3 5 8 6 9 5 8 12 8 15 18 15 14 14 10 4 7 9 25 36 39 39 38 36 34 30 29 27 24 22 20 17 16 13 9 4 3 8 5 4 4 9 12
9 3 8 7 14 9 10 20 15 9 10 13 19 11 11 13 9 8 3 33 39 40 41 40 36 34 31 29 26 24 21 19 18 18 15 9 3 1 6 7 6 7 10 12
1 4 10 14 20 13 14 18 20 15 16 9 16 17 15 8 5 4 26 33 36 36 37 39 37 35 32 30 26 24 22 20 18 21 13 9 5 5 5 7 7 8 9 12
2 5 6 15 18 15 11 15 19 19 22 18 22 7 8 7 11 13 22 27 31 34 36 37 37 35 34 30 28 24 25 20 20 22 13 12 8 6 3 3 9 9 8 12
9 3 4 5 7 10 6 13 16 15 19 19 18 6 6 7 9 5 18 26 30 33 38 37 38 37 35 31 29 25 26 23 20 19 16 13 9 8 5 3 9 10 8 12
11 12 4 5 6 5 1 13 16 15 16 17 16 18 11 6 22 30 26 16 29 30 36 37 36 36 34 30 27 25 25 22 20 20 14 15 12 11 9 3 4 11 9 11
14 6 3 3 3 3 7 4 10 10 9 21 8 11 4 18 28 21 23 19 11 32 37 37 35 34 34 31 28 26 25 21 21 20 18 15 13 13 10 5 7 11 11 12
12 7 3 3 4 2 2 18 27 15 6 16 15 16 12 7 7 3 15 17 18 14 38 38 36 35 34 31 28 26 26 22 22 21 19 15 14 14 12 6 7 11 9 13
1 3 8 6 3 5 14 24 23 6 2 21 14 16 14 6 5 11 14 19 17 17 19 38 38 38 35 31 29 27 27 23 22 22 19 18 16 17 10 6 8 9 11 14
2 3 4 4 1 3 16 19 6 9 22 9 24 24 20 21 19 19 18 19 18 17 13 33 39 37 34 32 30 28 28 23 23 24 21 21 21 17 12 6 9 7 11 16
2 2 2 1 2 5 19 19 21 18 21 24 26 29 27 28 25 22 21 20 20 16 8 14 36 37 34 32 29 27 27 24 25 26 25 22 21 15 11 9 12 7 10 18
8 8 3 1 3 4 5 18 28 32 32 24 24 25 27 28 26 23 24 22 20 16 10 4 18 35 36 33 29 23 28 24 26 28 27 24 21 16 13 11 14 11 13 19
4 6 9 4 6 14 12 23 22 25 23 26 22 21 24 26 28 20 22 20 20 21 15 6 11 35 35 32 30 26 29 27 28 30 29 27 23 19 17 13 17 12 11 8
5 2 3 3 13 10 20 26 25 18 20 24 23 22 22 24 27 17 19 20 21 22 17 10 8 36 36 33 29 28 30 29 31 32 32 30 26 22 19 17 22 18 12 11
Wind_Direction
233 217 222 219 218 228 246 239 252 244 244 263 256 258 268 269 264 268 266 268 249 234 270 280 269 260 260 243 245 235 231 234 231 216 210 206 213 209 203 206 224 238 241 244
235 228 228 237 226 231 244 260 262 263 246 247 247 257 256 253 253 252 257 261 262 255 254 250 251 264 258 245 232 229 234 230 219 214 209 218 214 210 219 234 228 230 237 251
229 244 224 231 233 229 232 238 248 256 285 279 286 290 285 283 274 267 256 259 262 250 247 246 257 256 241 227 227 227 224 209 209 209 202 180 174 193 216 217 223 229 243 261
260 254 239 245 229 232 242 234 238 253 241 254 209 272 264 266 264 266 266 271 272 268 263 249 253 237 227 219 219 226 210 202 206 201 185 172 189 193 192 208 223 239 248 260
240 273 261 247 249 232 253 225 257 257 246 261 254 269 266 215 254 248 256 256 257 260 262 256 245 219 204 205 213 205 188 181 179 167 172 184 183 194 215 216 231 231 251 274
250 246 257 264 272 252 263 243 244 257 261 263 249 222 267 242 250 251 243 260 262 258 254 229 187 185 184 190 195 185 172 169 162 173 183 194 194 198 195 200 218 248 271 276
248 246 251 252 269 275 260 233 248 236 231 239 222 243 235 251 235 239 242 249 258 264 226 172 167 170 175 182 181 167 160 160 165 179 175 185 185 204 206 213 235 255 278 267
257 265 263 254 230 253 255 235 221 214 217 244 236 241 238 241 261 243 249 250 256 259 180 170 167 168 169 174 168 159 160 164 175 180 184 198 216 205 206 223 250 266 274 257
10 282 311 302 297 229 251 251 246 250 279 225 234 240 262 258 258 256 245 245 135 147 159 157 160 163 166 166 161 159 163 168 170 176 180 190 174 178 216 246 269 263 254 220
87 285 278 287 286 278 235 259 249 224 235 253 242 250 256 263 257 236 215 156 133 143 147 152 156 161 162 157 154 159 164 163 160 170 191 167 173 209 243 262 214 197 169 160
210 196 276 300 256 270 267 238 240 279 220 232 255 257 263 274 202 173 182 166 149 149 151 156 156 161 159 153 159 161 166 160 168 181 170 169 197 209 206 184 177 168 182 156
336 309 281 263 281 279 285 266 232 228 250 232 243 246 248 270 172 152 188 158 155 152 153 155 158 159 157 159 166 168 169 166 173 177 158 184 184 247 188 153 173 167 158 147
347 272 303 310 235 252 283 327 252 248 238 219 239 245 263 309 259 215 181 151 146 147 149 153 158 158 160 164 168 170 172 171 174 170 165 167 173 178 168 158 161 157 160 150
297 249 255 275 295 325 294 310 321 347 248 233 226 251 254 243 232 228 212 147 147 148 149 153 156 160 163 168 169 172 174 175 174 176 173 165 157 113 160 160 151 133 161 160
196 247 254 272 277 273 270 285 299 307 283 275 234 217 230 282 237 154 146 144 141 145 148 153 157 162 166 170 171 173 178 176 179 181 176 168 154 136 121 155 158 141 151 156
173 262 292 278 264 252 232 266 283 285 282 282 258 234 236 22 77 102 124 137 144 149 150 156 162 166 171 172 172 171 180 177 182 188 184 167 154 148 103 110 161 160 152 163
261 262 295 295 137 120 301 259 263 271 265 263 265 163 315 113 31 78 144 146 153 152 155 160 168 170 174 174 174 173 180 174 184 185 179 167 166 163 180 141 157 163 151 157
246 250 263 267 182 217 355 331 329 304 276 302 272 149 201 94 74 52 47 110 155 154 156 165 171 173 176 175 175 173 181 177 182 180 179 171 168 172 182 190 177 167 163 160
219 214 257 260 241 325 329 41 345 339 6 358 89 101 46 136 67 35 31 44 91 164 168 172 175 175 175 175 176 174 181 180 181 191 186 178 177 175 186 179 160 162 163 169
229 156 198 312 314 180 62 323 330 313 50 352 13 57 8 187 63 312 16 38 57 137 171 173 174 175 176 177 177 175 181 182 184 187 184 178 184 178 183 187 155 158 160 170
311 143 237 260 281 332 343 330 318 109 331 323 31 32 25 38 86 33 30 42 63 74 159 174 174 178 178 178 180 178 183 186 186 186 181 187 192 183 191 183 152 156 163 159
43 279 342 319 96 122 347 340 46 317 311 321 35 11 23 24 30 34 28 32 42 48 104 176 174 176 179 182 183 180 186 187 187 186 180 188 187 184 184 186 161 160 168 163
14 339 304 65 290 359 24 1 338 328 334 18 22 9 10 10 17 20 20 26 40 36 57 146 179 177 181 185 188 184 187 185 189 184 185 188 188 187 197 191 168 160 171 170
336 5 8 168 357 132 44 6 354 350 353 3 9 4 2 359 7 12 7 14 21 18 3 58 188 181 182 189 191 192 186 185 191 185 187 186 191 189 190 187 171 165 152 164
346 333 323 301 10 341 353 352 339 327 352 8 358 352 349 354 358 4 4 3 5 356 351 335 209 192 191 190 191 190 187 187 193 190 189 189 192 197 190 191 176 179 168 144
4 12 331 300 318 325 319 326 327 354 355 354 352 342 345 347 347 2 358 359 359 348 337 311 319 201 198 194 190 190 190 191 195 194 192 196 198 195 193 183 180 192 200 210